Regional Weather Roundup
Issued by NWS Little Rock, AR

Home | Current Version | Previous Version | Graphics & Text | Print | Product List | Glossary On
Versions: 1 2 3 4 5 6 7 8 9 10 11 12 13 14 15 16 17 18 19 20 21 22 23 24 25 26 27 28 29 30 31 32 33 34 35 36 37 38 39 40 41 42 43 44 45 46 47 48 49 50
000
ASUS44 KLZK 111205
RWRLZK

WEATHER ROUNDUP FOR ARKANSAS
NATIONAL WEATHER SERVICE LITTLE ROCK AR
600 AM CST THU FEB 11 2016

NOTE: "FAIR" INDICATES FEW OR NO CLOUDS BELOW 12,000 FEET WITH NO
SIGNIFICANT WEATHER AND/OR OBSTRUCTIONS TO VISIBILITY.

ARZ001-003-010-029-111300-
NORTHWEST ARKANSAS

CITY           SKY/WX    TMP DP  RH WIND       PRES   REMARKS
FAYETTEVILLE   CLOUDY    29  27  92 CALM      30.05R
6HR MIN TEMP:  27; 6HR MAX TEMP:  46;

FORT SMITH     CLOUDY    34  26  72 E5        30.04R WCI  30
6HR MIN TEMP:  32; 6HR MAX TEMP:  40;

HARRISON       CLOUDY    27  19  72 SE3       30.07R
6HR MIN TEMP:  26; 6HR MAX TEMP:  35;

BENTONVILLE    CLOUDY    34  23  64 E5        30.06R WCI  30
ROGERS         CLOUDY    32  24  72 NE5       30.06R WCI  27
6HR MIN TEMP:  31; 6HR MAX TEMP:  37;

SILOAM SPGS    CLOUDY    36  21  55 NE6       30.06R
6HR MIN TEMP:  36; 6HR MAX TEMP:  46;

HIGHFILL       CLOUDY    31  26  82 N6        30.05R WCI  25
6HR MIN TEMP:  31; 6HR MAX TEMP:  44;

SPRINGDALE     CLEAR     34  25  69 E8        30.06  WCI  27
$$

ARZ004-005-016-111300-
NORTH CENTRAL ARKANSAS

CITY           SKY/WX    TMP DP  RH WIND       PRES   REMARKS
BATESVILLE     CLOUDY    27  16  63 CALM      30.12R
6HR MIN TEMP:  27; 6HR MAX TEMP:  30;

FLIPPIN        CLOUDY    27  12  54 NE5       30.09R WCI  21
6HR MIN TEMP:  27; 6HR MAX TEMP:  34;

MTN HOME       CLOUDY    24  14  65 NE5       30.09R WCI  18
6HR MIN TEMP:  24; 6HR MAX TEMP:  31;

$$

ARZ040-041-111300-
WEST CENTRAL ARKANSAS

CITY           SKY/WX    TMP DP  RH WIND       PRES   REMARKS
MENA           CLEAR     45  36  70 W6        30.01R
MOUNT IDA      CLOUDY    37  31  78 CALM      29.98R
6HR MIN TEMP:  35; 6HR MAX TEMP:  46;

$$

ARZ009-017-025-026-028-111300-
NORTHEAST ARKANSAS

CITY           SKY/WX    TMP DP  RH WIND       PRES   REMARKS
JONESBORO      CLEAR     26  18  71 NE14      30.12R WCI  14
6HR MIN TEMP:  25; 6HR MAX TEMP:  28;

NEWPORT        CLOUDY    26  19  74 N13       30.13R WCI  15
6HR MIN TEMP:  25; 6HR MAX TEMP:  30;

WALNUT RIDGE   CLOUDY    25  18  74 NE9       30.15R WCI  15
6HR MIN TEMP:  25; 6HR MAX TEMP:  28;

BLYTHEVILLE    CLEAR     28  16  60 E10       30.14R WCI  19
6HR MIN TEMP:  27; 6HR MAX TEMP:  30;

$$

ARZ022-023-033-042-044-111300-
CENTRAL ARKANSAS

CITY           SKY/WX    TMP DP  RH WIND       PRES   REMARKS
LITTLE ROCK    PTCLDY    32  25  75 N5        30.07R WCI  27
6HR MIN TEMP:  32; 6HR MAX TEMP:  39;

N LITTLE ROCK    N/A     31  27  84 NE7       30.07R WCI  25
6HR MIN TEMP:  31; 6HR MAX TEMP:  43;

JACKSONVILLE   CLEAR     31  24  76 NE5       30.06R WCI  26
6HR MIN TEMP:  30; 6HR MAX TEMP:  32;

SEARCY         CLEAR     28  23  81 N7        30.11R WCI  21
6HR MIN TEMP:  28; 6HR MAX TEMP:  33;

HOT SPRINGS    CLOUDY    35  30  82 CALM      30.02R
6HR MIN TEMP:  35; 6HR MAX TEMP:  48;

RUSSELLVILLE   CLEAR     28  24  85 CALM      30.06R
6HR MIN TEMP:  27; 6HR MAX TEMP:  32;

CLINTON        FAIR      25  23  93 CALM      30.10R
$$

ARZ036-111300-
EAST ARKANSAS

CITY           SKY/WX    TMP DP  RH WIND       PRES   REMARKS
WEST MEMPHIS   CLEAR     30  18  60 E6        30.07R HAZE    WCI  24
6HR MIN TEMP:  30; 6HR MAX TEMP:  34;

$$

ARZ050-053-066-070-073-111300-
SOUTHWEST ARKANSAS

CITY           SKY/WX    TMP DP  RH WIND       PRES   REMARKS
ARKADELPHIA    FAIR      29  29 100 NE3       30.04R
6HR MIN TEMP:  28; 6HR MAX TEMP:  34;

CAMDEN         CLEAR     32  28  86 CALM      30.04R
TEXARKANA      CLEAR     51  36  56 SW8       30.03R
6HR MIN TEMP:  50; 6HR MAX TEMP:  56;

EL DORADO      CLEAR     53  38  56 SW12G22   30.04R
6HR MIN TEMP:  47; 6HR MAX TEMP:  54;

DE QUEEN       CLEAR     30  30 100 CALM      30.02R FOG
6HR MIN TEMP:  29; 6HR MAX TEMP:  36;

$$

ARZ056-057-069-111300-
SOUTHEAST ARKANSAS

CITY           SKY/WX    TMP DP  RH WIND       PRES   REMARKS
PINE BLUFF     CLEAR     33  29  85 S5        30.03R WCI  29
6HR MIN TEMP:  32; 6HR MAX TEMP:  38;

STUTTGART      CLEAR     32  27  80 N6        30.06R WCI  26
6HR MIN TEMP:  32; 6HR MAX TEMP:  41;

MONTICELLO     CLEAR     42  34  73 CALM      30.05R
6HR MIN TEMP:  42; 6HR MAX TEMP:  50;


$$





USA.gov is the U.S. government's official web portal to all federal, state and local government web resources and services.